| time (UTC) | temp F | wind direction | speed knots | gust knots | rain 1hr in | rain 24hr in | rain mn in | humidity % | barometer mb |
| 20260506104006 | 55 | 348 | 3.5 | 9.6 | 0.00 | 0.00 | 0.00 | 78 | 1011.8 |
| 20260506103506 | 55 | 35 | 4.3 | 8.7 | 0.00 | 0.00 | 0.00 | 77 | 1011.8 |
| 20260506103016 | 56 | 339 | 3.5 | 7.0 | 0.00 | 0.00 | 0.00 | 78 | 1011.7 |
| 20260506102505 | 56 | 290 | 1.7 | 8.7 | 0.00 | 0.00 | 0.00 | 78 | 1011.7 |
| 20260506102006 | 56 | 352 | 3.5 | 8.7 | 0.00 | 0.00 | 0.00 | 78 | 1011.7 |
| 20260506101518 | 56 | 13 | 2.6 | 7.8 | 0.00 | 0.00 | 0.00 | 78 | 1011.5 |
| 20260506101003 | 56 | 360 | 2.6 | 5.2 | 0.00 | 0.00 | 0.00 | 78 | 1011.4 |
| 20260506100508 | 56 | 348 | 0.9 | 5.2 | 0.00 | 0.00 | 0.00 | 78 | 1011.4 |
| 20260506100025 | 56 | 325 | 2.6 | 7.8 | 0.00 | 0.00 | 0.00 | 78 | 1011.2 |
| 20260506095508 | 56 | 13 | 2.6 | 7.8 | 0.00 | 0.00 | 0.00 | 78 | 1011.1 |
| 20260506095008 | 56 | 360 | 2.6 | 6.1 | 0.00 | 0.00 | 0.00 | 77 | 1011.2 |
| 20260506094535 | 56 | 9 | 3.5 | 6.1 | 0.00 | 0.00 | 0.00 | 77 | 1011.0 |
| 20260506094009 | 56 | 298 | 3.5 | 5.2 | 0.00 | 0.00 | 0.00 | 77 | 1010.8 |
| 20260506093511 | 56 | 340 | 1.7 | 6.1 | 0.00 | 0.00 | 0.00 | 77 | 1010.7 |
| 20260506093033 | 56 | 14 | 3.5 | 6.1 | 0.00 | 0.00 | 0.00 | 76 | 1010.7 |
| 20260506092505 | 57 | 11 | 2.6 | 7.0 | 0.00 | 0.00 | 0.00 | 77 | 1010.8 |
| 20260506092009 | 57 | 315 | 1.7 | 7.0 | 0.00 | 0.00 | 0.00 | 77 | 1010.9 |
| 20260506091514 | 57 | 338 | 2.6 | 7.0 | 0.00 | 0.00 | 0.00 | 77 | 1010.9 |
| 20260506091006 | 57 | 360 | 1.7 | 7.0 | 0.00 | 0.00 | 0.00 | 78 | 1011.0 |
| 20260506090505 | 57 | 360 | 1.7 | 7.0 | 0.00 | 0.00 | 0.00 | 78 | 1010.9 |
| 20260506090021 | 57 | 16 | 1.7 | 4.3 | 0.00 | 0.00 | 0.00 | 78 | 1010.8 |
| 20260506085510 | 57 | 21 | 0.9 | 5.2 | 0.00 | 0.00 | 0.00 | 78 | 1010.7 |
| 20260506085006 | 57 | 350 | 1.7 | 5.2 | 0.00 | 0.00 | 0.00 | 78 | 1010.8 |
| 20260506084525 | 57 | 28 | 2.6 | 4.3 | 0.00 | 0.00 | 0.00 | 78 | 1010.8 |
| 20260506084007 | 57 | 22 | 0.9 | 4.3 | 0.00 | 0.00 | 0.00 | 78 | 1010.8 |
| 20260506083504 | 57 | 332 | 1.7 | 5.2 | 0.00 | 0.00 | 0.00 | 78 | 1010.7 |
| 20260506083009 | 57 | 28 | 1.7 | 6.1 | 0.00 | 0.00 | 0.00 | 78 | 1010.6 |
| 20260506082503 | 57 | 360 | 3.5 | 7.0 | 0.00 | 0.00 | 0.00 | 78 | 1010.5 |
| 20260506082003 | 57 | 335 | 4.3 | 7.0 | 0.00 | 0.00 | 0.00 | 78 | 1010.6 |
| 20260506081513 | 57 | 5 | 1.7 | 7.0 | 0.00 | 0.00 | 0.00 | 79 | 1010.5 |
| 20260506081004 | 57 | 298 | 1.7 | 5.2 | 0.00 | 0.00 | 0.00 | 79 | 1010.4 |
| 20260506080503 | 57 | 5 | 3.5 | 9.6 | 0.00 | 0.00 | 0.00 | 79 | 1010.5 |
| 20260506073508 | 58 | 11 | 2.6 | 7.0 | 0.00 | 0.00 | 0.00 | 80 | 1010.4 |
| 20260506073008 | 58 | 331 | 2.6 | 7.0 | 0.00 | 0.00 | 0.00 | 80 | 1010.6 |
| 20260506072504 | 58 | 340 | 0.9 | 5.2 | 0.00 | 0.00 | 0.00 | 80 | 1010.7 |
| 20260506072003 | 58 | 18 | 2.6 | 5.2 | 0.00 | 0.00 | 0.00 | 80 | 1010.6 |
| 20260506071513 | 58 | 12 | 1.7 | 4.3 | 0.00 | 0.00 | 0.00 | 80 | 1010.6 |
| 20260506071007 | 58 | 350 | 2.6 | 7.0 | 0.00 | 0.00 | 0.00 | 80 | 1010.6 |
| 20260506070507 | 58 | 352 | 1.7 | 7.0 | 0.00 | 0.00 | 0.00 | 80 | 1010.5 |
| 20260506062515 | 59 | 52 | 2.6 | 6.1 | 0.00 | 0.00 | 0.00 | 78 | 1009.5 |
| 20260506062011 | 59 | 360 | 3.5 | 7.0 | 0.00 | 0.00 | 0.00 | 78 | 1009.7 |
| 20260506061506 | 59 | 9 | 2.6 | 7.8 | 0.00 | 0.00 | 0.00 | 78 | 1009.7 |
| 20260506061002 | 59 | 329 | 3.5 | 8.7 | 0.00 | 0.00 | 0.00 | 78 | 1009.9 |
| 20260506060505 | 59 | 338 | 3.5 | 8.7 | 0.00 | 0.00 | 0.00 | 77 | 1010.0 |
| 20260506051015 | 60 | 57 | 3.5 | 10.4 | 0.00 | 0.00 | 0.00 | 75 | 1010.2 |
| 20260506050505 | 60 | 24 | 3.5 | 10.4 | 0.00 | 0.00 | 0.00 | 75 | 1010.1 |
| 20260506045007 | 61 | 331 | 2.6 | 7.8 | 0.00 | 0.00 | 0.00 | 75 | 1010.2 |
| 20260506044516 | 61 | 42 | 1.7 | 8.7 | 0.00 | 0.00 | 0.00 | 74 | 1010.3 |
| 20260506044004 | 61 | 350 | 3.5 | 8.7 | 0.00 | 0.00 | 0.00 | 74 | 1010.2 |
| 20260506043506 | 61 | 11 | 4.3 | 7.8 | 0.00 | 0.00 | 0.00 | 74 | 1010.0 |
| 20260506043021 | 61 | 309 | 3.5 | 7.8 | 0.00 | 0.00 | 0.00 | 74 | 1010.0 |
| 20260506042505 | 62 | 315 | 2.6 | 7.8 | 0.00 | 0.00 | 0.00 | 74 | 1009.9 |
| 20260506042012 | 62 | 13 | 4.3 | 7.8 | 0.00 | 0.00 | 0.00 | 73 | 1009.9 |
| 20260506041526 | 62 | 360 | 1.7 | 7.8 | 0.00 | 0.00 | 0.00 | 73 | 1010.0 |
| 20260506041008 | 62 | 11 | 2.6 | 7.8 | 0.00 | 0.00 | 0.00 | 73 | 1010.0 |
| 20260506040508 | 63 | 11 | 3.5 | 7.8 | 0.00 | 0.00 | 0.00 | 73 | 1010.0 |
| 20260506040027 | 63 | 318 | 2.6 | 8.7 | 0.00 | 0.00 | 0.00 | 73 | 1010.1 |
| 20260506035514 | 63 | 352 | 3.5 | 8.7 | 0.00 | 0.00 | 0.00 | 72 | 1009.9 |
| 20260506035003 | 63 | 327 | 2.6 | 7.8 | 0.00 | 0.00 | 0.00 | 72 | 1010.1 |
| 20260506034513 | 63 | 311 | 2.6 | 9.6 | 0.00 | 0.00 | 0.00 | 72 | 1009.9 |
| 20260506034004 | 63 | 336 | 2.6 | 9.6 | 0.00 | 0.00 | 0.00 | 72 | 1009.9 |
| 20260506033506 | 64 | 320 | 4.3 | 9.6 | 0.00 | 0.00 | 0.00 | 72 | 1009.9 |
| 20260506033018 | 64 | 316 | 2.6 | 8.7 | 0.00 | 0.00 | 0.00 | 72 | 1009.8 |
| 20260506032505 | 64 | 325 | 4.3 | 9.6 | 0.00 | 0.00 | 0.00 | 72 | 1009.4 |
| 20260506032012 | 64 | 340 | 1.7 | 9.6 | 0.00 | 0.00 | 0.00 | 72 | 1009.2 |
| 20260506031522 | 64 | 360 | 4.3 | 9.6 | 0.00 | 0.00 | 0.00 | 72 | 1009.0 |
| 20260506031010 | 65 | 13 | 1.7 | 8.7 | 0.00 | 0.00 | 0.00 | 72 | 1009.0 |
| 20260506030506 | 65 | 342 | 3.5 | 8.7 | 0.00 | 0.00 | 0.00 | 71 | 1008.9 |
| 20260506030031 | 65 | 325 | 1.7 | 7.8 | 0.00 | 0.00 | 0.00 | 72 | 1008.8 |
| 20260506025507 | 65 | 352 | 3.5 | 9.6 | 0.00 | 0.00 | 0.00 | 72 | 1008.7 |
| 20260506025011 | 65 | 352 | 1.7 | 10.4 | 0.00 | 0.00 | 0.00 | 72 | 1008.8 |
| 20260506024541 | 65 | 79 | 3.5 | 10.4 | 0.00 | 0.00 | 0.00 | 71 | 1008.6 |
| 20260506024005 | 66 | 15 | 4.3 | 9.6 | 0.00 | 0.00 | 0.00 | 71 | 1008.3 |
| 20260506023506 | 66 | 360 | 4.3 | 8.7 | 0.00 | 0.00 | 0.00 | 71 | 1008.2 |
| 20260506023017 | 66 | 13 | 1.7 | 7.8 | 0.00 | 0.00 | 0.00 | 70 | 1007.9 |
| 20260506022504 | 66 | 340 | 3.5 | 8.7 | 0.00 | 0.00 | 0.00 | 70 | 1008.0 |
| 20260506022009 | 66 | 15 | 3.5 | 8.7 | 0.00 | 0.00 | 0.00 | 70 | 1007.9 |
| 20260506021522 | 66 | 5 | 4.3 | 7.8 | 0.00 | 0.00 | 0.00 | 69 | 1007.6 |
| 20260506021006 | 66 | 350 | 3.5 | 9.6 | 0.00 | 0.00 | 0.00 | 69 | 1007.5 |
| 20260506020508 | 67 | 5 | 3.5 | 8.7 | 0.00 | 0.00 | 0.00 | 69 | 1007.6 |
| 20260506020026 | 67 | 347 | 2.6 | 7.8 | 0.00 | 0.00 | 0.00 | 68 | 1007.7 |
| 20260506015507 | 67 | 345 | 4.3 | 9.6 | 0.00 | 0.00 | 0.00 | 68 | 1007.7 |
| 20260506015014 | 67 | 16 | 3.5 | 9.6 | 0.00 | 0.00 | 0.00 | 67 | 1007.5 |
| 20260506014506 | 68 | 360 | 2.6 | 7.8 | 0.00 | 0.00 | 0.00 | 68 | 1007.6 |
| 20260506014004 | 68 | 360 | 2.6 | 8.7 | 0.00 | 0.00 | 0.00 | 68 | 1007.4 |
| 20260506013504 | 68 | 5 | 2.6 | 9.6 | 0.00 | 0.00 | 0.00 | 68 | 1007.1 |
| 20260506013013 | 68 | 348 | 3.5 | 9.6 | 0.00 | 0.00 | 0.00 | 67 | 1007.1 |
| 20260506012504 | 69 | 304 | 1.7 | 8.7 | 0.00 | 0.00 | 0.00 | 67 | 1006.9 |
| 20260506012006 | 69 | 227 | 2.6 | 8.7 | 0.00 | 0.00 | 0.00 | 67 | 1006.9 |
| 20260506011518 | 70 | 360 | 3.5 | 9.6 | 0.00 | 0.00 | 0.00 | 67 | 1006.7 |
| 20260506011008 | 70 | 28 | 3.5 | 7.8 | 0.00 | 0.00 | 0.00 | 66 | 1006.6 |
| 20260506010507 | 70 | 331 | 3.5 | 9.6 | 0.00 | 0.00 | 0.00 | 66 | 1006.5 |
| 20260506010027 | 71 | 48 | 5.2 | 9.6 | 0.00 | 0.00 | 0.00 | 65 | 1006.3 |
| 20260506005506 | 71 | 360 | 4.3 | 8.7 | 0.00 | 0.00 | 0.00 | 65 | 1006.3 |
| 20260506005008 | 71 | 17 | 1.7 | 7.8 | 0.00 | 0.00 | 0.00 | 65 | 1005.9 |
| 20260506004507 | 71 | 341 | 3.5 | 7.8 | 0.00 | 0.00 | 0.00 | 64 | 1006.0 |
| 20260506004004 | 71 | 360 | 3.5 | 7.8 | 0.00 | 0.00 | 0.00 | 64 | 1006.0 |
| 20260506003504 | 72 | 340 | 3.5 | 10.4 | 0.00 | 0.00 | 0.00 | 63 | 1006.0 |
| 20260506003015 | 72 | 310 | 2.6 | 10.4 | 0.00 | 0.00 | 0.00 | 63 | 1006.0 |
| 20260506002504 | 72 | 16 | 5.2 | 10.4 | 0.00 | 0.00 | 0.00 | 62 | 1005.8 |
| 20260506002007 | 72 | 20 | 4.3 | 10.4 | 0.00 | 0.00 | 0.00 | 62 | 1005.9 |
| 20260506001518 | 73 | 323 | 3.5 | 8.7 | 0.00 | 0.00 | 0.00 | 62 | 1005.6 |
| 20260506001005 | 73 | 346 | 2.6 | 9.6 | 0.00 | 0.00 | 0.00 | 62 | 1005.7 |
| 20260506000508 | 73 | 319 | 3.5 | 9.6 | 0.00 | 0.00 | 0.00 | 61 | 1005.8 |
| 20260506000022 | 74 | 5 | 3.5 | 9.6 | 0.00 | 0.00 | 0.00 | 62 | 1005.7 |
| 20260505235507 | 74 | 317 | 2.6 | 9.6 | 0.00 | 0.00 | 0.00 | 62 | 1005.6 |
| 20260505235007 | 75 | 19 | 3.5 | 10.4 | 0.00 | 0.00 | 0.00 | 61 | 1005.7 |
| 20260505234529 | 75 | 352 | 3.5 | 10.4 | 0.00 | 0.00 | 0.00 | 60 | 1005.4 |
| 20260505234009 | 75 | 5 | 2.6 | 11.3 | 0.00 | 0.00 | 0.00 | 60 | 1005.6 |
| 20260505233504 | 76 | 14 | 6.1 | 13.9 | 0.00 | 0.00 | 0.00 | 60 | 1005.3 |
| 20260505233009 | 77 | 5 | 5.2 | 13.9 | 0.00 | 0.00 | 0.00 | 59 | 1005.4 |
| 20260505232504 | 77 | 344 | 5.2 | 13.0 | 0.00 | 0.00 | 0.00 | 58 | 1005.4 |
| 20260505232005 | 78 | 313 | 7.8 | 12.2 | 0.00 | 0.00 | 0.00 | 56 | 1005.2 |
| 20260505231515 | 80 | 296 | 6.1 | 11.3 | 0.00 | 0.00 | 0.00 | 56 | 1004.9 |
| 20260505231006 | 80 | 13 | 5.2 | 11.3 | 0.00 | 0.00 | 0.00 | 56 | 1004.9 |
| 20260505230505 | 80 | 349 | 4.3 | 9.6 | 0.00 | 0.00 | 0.00 | 55 | 1004.9 |
| 20260505230043 | 80 | 11 | 5.2 | 10.4 | 0.00 | 0.00 | 0.00 | 55 | 1005.0 |
| 20260505225511 | 81 | 9 | 5.2 | 10.4 | 0.00 | 0.00 | 0.00 | 54 | 1004.7 |
| 20260505225006 | 82 | 13 | 6.1 | 11.3 | 0.00 | 0.00 | 0.00 | 54 | 1004.8 |
| 20260505224526 | 83 | 313 | 4.3 | 11.3 | 0.00 | 0.00 | 0.00 | 55 | 1004.9 |
| 20260505224011 | 84 | 273 | 3.5 | 10.4 | 0.00 | 0.00 | 0.00 | 54 | 1004.8 |
| 20260505223512 | 84 | 352 | 4.3 | 10.4 | 0.00 | 0.00 | 0.00 | 49 | 1004.6 |
| 20260505223025 | 85 | 5 | 6.1 | 10.4 | 0.00 | 0.00 | 0.00 | 49 | 1004.5 |
| 20260505222504 | 86 | 44 | 3.5 | 8.7 | 0.00 | 0.00 | 0.00 | 48 | 1004.3 |
| 20260505222005 | 87 | 10 | 3.5 | 8.7 | 0.00 | 0.00 | 0.00 | 45 | 1004.4 |
| 20260505221512 | 87 | 344 | 3.5 | 7.8 | 0.00 | 0.00 | 0.00 | 45 | 1004.4 |
| 20260505221010 | 87 | 340 | 2.6 | 7.8 | 0.00 | 0.00 | 0.00 | 45 | 1004.3 |
| 20260505220506 | 87 | 352 | 4.3 | 8.7 | 0.00 | 0.00 | 0.00 | 43 | 1004.3 |
| 20260505220029 | 87 | 15 | 2.6 | 8.7 | 0.00 | 0.00 | 0.00 | 45 | 1004.3 |
| 20260505215507 | 87 | 360 | 2.6 | 7.8 | 0.00 | 0.00 | 0.00 | 43 | 1004.4 |
| 20260505215007 | 87 | 352 | 1.7 | 7.8 | 0.00 | 0.00 | 0.00 | 45 | 1004.4 |
| 20260505214523 | 87 | 347 | 2.6 | 7.8 | 0.00 | 0.00 | 0.00 | 45 | 1004.3 |
| 20260505214012 | 87 | 17 | 2.6 | 7.0 | 0.00 | 0.00 | 0.00 | 44 | 1004.3 |
| 20260505213510 | 88 | 347 | 2.6 | 7.0 | 0.00 | 0.00 | 0.00 | 44 | 1004.3 |
| 20260505213028 | 90 | 19 | 1.7 | 6.1 | 0.00 | 0.00 | 0.00 | 44 | 1004.4 |
| 20260505212510 | 90 | 246 | 0.9 | 3.5 | 0.00 | 0.00 | 0.00 | 45 | 1004.4 |
| 20260505212011 | 90 | 321 | 0.9 | 4.3 | 0.00 | 0.00 | 0.00 | 43 | 1004.3 |
| 20260505211530 | 90 | 178 | 1.7 | 5.2 | 0.00 | 0.00 | 0.00 | 44 | 1004.4 |
| 20260505211008 | 90 | 236 | 1.7 | 6.1 | 0.00 | 0.00 | 0.00 | 44 | 1004.5 |
| 20260505210505 | 90 | 315 | 1.7 | 8.7 | 0.00 | 0.00 | 0.00 | 46 | 1004.6 |
| 20260505210016 | 90 | 155 | 1.7 | 8.7 | 0.00 | 0.00 | 0.00 | 45 | 1004.6 |
| 20260505205506 | 90 | 245 | 2.6 | 8.7 | 0.00 | 0.00 | 0.00 | 44 | 1004.5 |
| 20260505205009 | 90 | 313 | 1.7 | 5.2 | 0.00 | 0.00 | 0.00 | 45 | 1004.7 |
| 20260505204518 | 90 | 297 | 1.7 | 6.1 | 0.00 | 0.00 | 0.00 | 45 | 1004.8 |
| 20260505204006 | 89 | 155 | 2.6 | 7.0 | 0.00 | 0.00 | 0.00 | 46 | 1004.9 |
| 20260505203507 | 89 | 281 | 2.6 | 7.0 | 0.00 | 0.00 | 0.00 | 46 | 1004.9 |
| 20260505203027 | 89 | 221 | 1.7 | 6.1 | 0.00 | 0.00 | 0.00 | 48 | 1004.9 |
| 20260505202509 | 89 | 217 | 3.5 | 6.1 | 0.00 | 0.00 | 0.00 | 48 | 1005.0 |
| 20260505202012 | 89 | 290 | 1.7 | 6.1 | 0.00 | 0.00 | 0.00 | 47 | 1005.1 |
| 20260505201526 | 89 | 224 | 2.6 | 7.0 | 0.00 | 0.00 | 0.00 | 45 | 1005.0 |
| 20260505201007 | 89 | 257 | 1.7 | 7.0 | 0.00 | 0.00 | 0.00 | 46 | 1005.1 |
| 20260505200514 | 88 | 244 | 1.7 | 7.0 | 0.00 | 0.00 | 0.00 | 50 | 1005.1 |
| 20260505200013 | 89 | 302 | 2.6 | 7.0 | 0.00 | 0.00 | 0.00 | 46 | 1005.2 |
| 20260505195503 | 89 | 217 | 2.6 | 7.8 | 0.00 | 0.00 | 0.00 | 48 | 1005.3 |
| 20260505195005 | 88 | 216 | 2.6 | 11.3 | 0.00 | 0.00 | 0.00 | 49 | 1005.3 |
| 20260505194519 | 88 | 197 | 5.2 | 10.4 | 0.00 | 0.00 | 0.00 | 48 | 1005.3 |
| 20260505194011 | 88 | 238 | 2.6 | 8.7 | 0.00 | 0.00 | 0.00 | 50 | 1005.3 |
| 20260505193506 | 88 | 254 | 3.5 | 8.7 | 0.00 | 0.00 | 0.00 | 47 | 1005.5 |
| 20260505193024 | 88 | 163 | 4.3 | 9.6 | 0.00 | 0.00 | 0.00 | 47 | 1005.4 |
| 20260505192511 | 88 | 267 | 2.6 | 9.6 | 0.00 | 0.00 | 0.00 | 49 | 1005.5 |
| 20260505192011 | 88 | 167 | 4.3 | 9.6 | 0.00 | 0.00 | 0.00 | 49 | 1005.4 |
| 20260505191527 | 88 | 232 | 3.5 | 10.4 | 0.00 | 0.00 | 0.00 | 50 | 1005.4 |
| 20260505191011 | 88 | 199 | 5.2 | 10.4 | 0.00 | 0.00 | 0.00 | 49 | 1005.5 |
| 20260505190508 | 88 | 190 | 4.3 | 9.6 | 0.00 | 0.00 | 0.00 | 49 | 1005.3 |
| 20260505190027 | 88 | 236 | 4.3 | 7.8 | 0.00 | 0.00 | 0.00 | 50 | 1005.5 |
| 20260505185508 | 87 | 195 | 4.3 | 8.7 | 0.00 | 0.00 | 0.00 | 1005.3 | |
| 20260505185005 | 87 | 211 | 4.3 | 8.7 | 0.00 | 0.00 | 0.00 | 50 | 1005.4 |
| 20260505184516 | 87 | 191 | 4.3 | 8.7 | 0.00 | 0.00 | 0.00 | 50 | 1005.4 |
| 20260505184005 | 87 | 166 | 3.5 | 7.8 | 0.00 | 0.00 | 0.00 | 51 | 1005.4 |
| 20260505183507 | 87 | 177 | 3.5 | 10.4 | 0.00 | 0.00 | 0.00 | 51 | 1005.3 |
| 20260505183032 | 86 | 238 | 4.3 | 10.4 | 0.00 | 0.00 | 0.00 | 52 | 1005.3 |
| 20260505182509 | 86 | 203 | 4.3 | 9.6 | 0.00 | 0.00 | 0.00 | 53 | 1005.5 |
| 20260505182016 | 86 | 227 | 6.1 | 9.6 | 0.00 | 0.00 | 0.00 | 1005.6 | |
| 20260505181523 | 86 | 223 | 4.3 | 8.7 | 0.00 | 0.00 | 0.00 | 56 | 1005.5 |
| 20260505181009 | 85 | 229 | 4.3 | 12.2 | 0.00 | 0.00 | 0.00 | 56 | 1005.6 |
| 20260505180513 | 85 | 225 | 4.3 | 11.3 | 0.00 | 0.00 | 0.00 | 56 | 1005.7 |
| 20260505180043 | 85 | 196 | 4.3 | 8.7 | 0.00 | 0.00 | 0.00 | 57 | 1005.8 |
| 20260505175511 | 84 | 167 | 2.6 | 8.7 | 0.00 | 0.00 | 0.00 | 59 | 1005.7 |
| 20260505175011 | 84 | 173 | 4.3 | 8.7 | 0.00 | 0.00 | 0.00 | 59 | 1005.8 |
| 20260505174537 | 84 | 217 | 3.5 | 10.4 | 0.00 | 0.00 | 0.00 | 60 | 1005.7 |
| 20260505174006 | 83 | 217 | 6.1 | 10.4 | 0.00 | 0.00 | 0.00 | 60 | 1005.7 |
| 20260505173506 | 83 | 181 | 4.3 | 11.3 | 0.00 | 0.00 | 0.00 | 62 | 1005.8 |
| 20260505173020 | 83 | 180 | 5.2 | 12.2 | 0.00 | 0.00 | 0.00 | 60 | 1005.8 |
| 20260505172510 | 83 | 184 | 3.5 | 13.0 | 0.00 | 0.00 | 0.00 | 62 | 1005.8 |
| 20260505172014 | 83 | 165 | 6.1 | 13.0 | 0.00 | 0.00 | 0.00 | 61 | 1005.7 |
| 20260505171529 | 83 | 196 | 4.3 | 9.6 | 0.00 | 0.00 | 0.00 | 63 | 1005.6 |
| 20260505171011 | 82 | 182 | 4.3 | 10.4 | 0.00 | 0.00 | 0.00 | 63 | 1005.8 |
| 20260505170509 | 82 | 161 | 4.3 | 10.4 | 0.00 | 0.00 | 0.00 | 64 | 1005.9 |
| 20260505170026 | 81 | 162 | 4.3 | 11.3 | 0.00 | 0.00 | 0.00 | 65 | 1005.8 |
| 20260505165506 | 81 | 171 | 5.2 | 9.6 | 0.00 | 0.00 | 0.00 | 63 | 1005.6 |
| 20260505165014 | 82 | 204 | 4.3 | 8.7 | 0.00 | 0.00 | 0.00 | 64 | 1005.6 |
| 20260505164507 | 82 | 159 | 2.6 | 11.3 | 0.00 | 0.00 | 0.00 | 65 | 1005.6 |
| 20260505164003 | 81 | 188 | 4.3 | 11.3 | 0.00 | 0.00 | 0.00 | 64 | 1005.5 |
| 20260505163500 | 82 | 184 | 4.3 | 10.4 | 0.00 | 0.00 | 0.00 | 65 | 1005.7 |
| 20260505163003 | 82 | 184 | 3.5 | 10.4 | 0.00 | 0.00 | 0.00 | 65 | 1005.6 |
| 20260505162503 | 81 | 148 | 5.2 | 9.6 | 0.00 | 0.00 | 0.00 | 65 | 1005.6 |
| 20260505162004 | 81 | 202 | 5.2 | 9.6 | 0.00 | 0.00 | 0.00 | 64 | 1005.5 |
| 20260505161515 | 81 | 140 | 3.5 | 12.2 | 0.00 | 0.00 | 0.00 | 67 | 1005.5 |
| 20260505161001 | 80 | 227 | 5.2 | 12.2 | 0.00 | 0.00 | 0.00 | 66 | 1005.5 |
| 20260505160501 | 81 | 199 | 5.2 | 12.2 | 0.00 | 0.00 | 0.00 | 66 | 1005.4 |
| 20260505153011 | 78 | 177 | 4.3 | 11.3 | 0.00 | 0.00 | 0.00 | 70 | 1005.5 |
| 20260505152506 | 78 | 229 | 5.2 | 14.8 | 0.00 | 0.00 | 0.00 | 70 | 1005.5 |
| 20260505152000 | 78 | 208 | 5.2 | 13.9 | 0.00 | 0.00 | 0.00 | 70 | 1005.5 |
| 20260505151515 | 77 | 133 | 4.3 | 13.9 | 0.00 | 0.00 | 0.00 | 72 | 1005.4 |
| 20260505151004 | 77 | 206 | 4.3 | 12.2 | 0.00 | 0.00 | 0.00 | 72 | 1005.4 |
| 20260505150504 | 76 | 175 | 6.1 | 13.0 | 0.00 | 0.00 | 0.00 | 73 | 1005.4 |
| 20260505140503 | 71 | 153 | 4.3 | 9.6 | 0.00 | 0.00 | 0.00 | 83 | 1005.4 |
| 20260505125004 | 67 | 178 | 3.5 | 10.4 | 0.00 | 0.00 | 0.00 | 88 | 1004.9 |
| 20260505124520 | 67 | 195 | 3.5 | 10.4 | 0.00 | 0.00 | 0.00 | 88 | 1005.0 |
| 20260505124006 | 67 | 200 | 3.5 | 7.0 | 0.00 | 0.00 | 0.00 | 88 | 1004.9 |
| 20260505123503 | 67 | 182 | 2.6 | 6.1 | 0.00 | 0.00 | 0.00 | 88 | 1004.9 |
| 20260505123022 | 67 | 145 | 2.6 | 7.0 | 0.00 | 0.00 | 0.00 | 88 | 1004.8 |
| 20260505122503 | 67 | 124 | 2.6 | 7.0 | 0.00 | 0.00 | 0.00 | 88 | 1004.7 |
| 20260505122003 | 67 | 156 | 3.5 | 7.8 | 0.00 | 0.00 | 0.00 | 88 | 1004.7 |
| 20260505121520 | 67 | 184 | 3.5 | 7.8 | 0.00 | 0.00 | 0.00 | 88 | 1004.7 |
| 20260505121004 | 66 | 148 | 2.6 | 7.8 | 0.00 | 0.00 | 0.00 | 88 | 1004.7 |
| 20260505120504 | 66 | 200 | 1.7 | 7.0 | 0.00 | 0.00 | 0.00 | 87 | 1004.5 |
| 20260505120019 | 67 | 181 | 2.6 | 7.0 | 0.00 | 0.00 | 0.00 | 87 | 1004.6 |
| 20260505115503 | 67 | 165 | 1.7 | 5.2 | 0.00 | 0.00 | 0.00 | 87 | 1004.6 |
| 20260505115005 | 67 | 160 | 2.6 | 5.2 | 0.00 | 0.00 | 0.00 | 87 | 1004.5 |
| 20260505114522 | 67 | 143 | 2.6 | 6.1 | 0.00 | 0.00 | 0.00 | 87 | 1004.4 |
| 20260505114002 | 67 | 177 | 2.6 | 7.8 | 0.00 | 0.00 | 0.00 | 87 | 1004.3 |
| 20260505113503 | 67 | 175 | 2.6 | 7.8 | 0.00 | 0.00 | 0.00 | 87 | 1004.2 |
| 20260505113015 | 67 | 158 | 3.5 | 7.0 | 0.00 | 0.00 | 0.00 | 87 | 1004.2 |
| 20260505112504 | 67 | 170 | 2.6 | 5.2 | 0.00 | 0.00 | 0.00 | 87 | 1004.3 |
| 20260505112004 | 67 | 185 | 2.6 | 6.1 | 0.00 | 0.00 | 0.00 | 87 | 1004.3 |
| 20260505111518 | 67 | 192 | 3.5 | 6.1 | 0.00 | 0.00 | 0.00 | 87 | 1004.3 |
| 20260505111004 | 67 | 203 | 2.6 | 7.0 | 0.00 | 0.00 | 0.00 | 86 | 1004.2 |
| 20260505110504 | 67 | 159 | 2.6 | 7.0 | 0.00 | 0.00 | 0.00 | 86 | 1004.1 |